Location: Innsbruck
(47.2657°N, 11.3914°E)
Time: 13:06:08
(UTC+02:00)

Envisat - Pass Details

Date: 28 September 2021
Orbit: 764 x 766 km, 98.2° (Epoch: 20 October)

Event Time Altitude Azimuth Distance (km) Brightness Sun altitude
Rises 05:44:45 0° 21° (NNE) 3,242 6.8 -15.1°
Reaches altitude 10° 05:47:16 10° 31° (NNE) 2,311 6.1 -14.6°
Maximum altitude 05:51:53 34° 96° (E) 1,249 4.8 -13.9°
Drops below altitude 10° 05:56:28 10° 160° (SSE) 2,295 5.6 -13.1°
Sets 05:58:57 0° 170° (S) 3,216 6.2 -12.7°
